User: anonymous   Login
Location: Unspecified
(0.0000°N, 0.0000°E)
Time: 09:52:25
(UTC+02:00)
Language:

YAOGAN 3 - Orbit

View from above orbital plane
View from above orbital plane
View from above satellite
View from above satellite

Ground track
Ground track

The orbit data is extracted from the following two-line orbital elements,

1 32289U 07055A   16211.17238342  .00000362  00000-0  53899-4 0  9991
2 32289  97.9863 208.1590 0001081  73.3309 286.8028 14.80719776470935
Epoch (UTC): 29 July 2016 04:08:13
Eccentricity: 0.0001081
inclination: 97.9863°
perigee height: 626 km
apogee height: 628 km
right ascension of ascending node: 208.1590°
argument of perigee: 73.3309°
revolutions per day: 14.80719776
mean anomaly at epoch: 286.8028°
orbit number at epoch: 47093

The dashed part of the orbit path shows where the satellite is in the earth's shadow,  

DLR